| time (UTC) | temp F | wind direction | speed knots | gust knots | rain 1hr in | rain 24hr in | rain mn in | humidity % | barometer mb |
| 20260507231548 | 63 | 319 | 0.0 | 3.5 | 0.00 | 0.03 | 0.01 | 56 | 1014.9 |
| 20260507230047 | 63 | 0 | 0.0 | 6.1 | 0.00 | 0.03 | 0.01 | 55 | 1014.9 |
| 20260507224549 | 63 | 0 | 0.0 | 4.3 | 0.00 | 0.03 | 0.01 | 56 | 1015.0 |
| 20260507223046 | 64 | 305 | 0.0 | 4.3 | 0.00 | 0.03 | 0.01 | 56 | 1015.0 |
| 20260507221545 | 64 | 284 | 0.9 | 5.2 | 0.00 | 0.03 | 0.01 | 55 | 1015.0 |
| 20260507220046 | 65 | 0 | 0.0 | 6.1 | 0.00 | 0.03 | 0.01 | 57 | 1015.0 |
| 20260507214549 | 65 | 0 | 1.7 | 7.8 | 0.00 | 0.03 | 0.01 | 53 | 1014.9 |
| 20260507213047 | 66 | 0 | 0.9 | 2.6 | 0.00 | 0.03 | 0.01 | 53 | 1014.9 |
| 20260507211553 | 65 | 315 | 1.7 | 7.0 | 0.00 | 0.03 | 0.01 | 55 | 1014.6 |
| 20260507210052 | 65 | 277 | 2.6 | 7.0 | 0.00 | 0.03 | 0.01 | 56 | 1014.5 |
| 20260507204549 | 65 | 238 | 2.6 | 6.1 | 0.00 | 0.03 | 0.01 | 55 | 1014.6 |
| 20260507203058 | 65 | 360 | 0.9 | 7.0 | 0.00 | 0.03 | 0.01 | 57 | 1014.6 |
| 20260507201551 | 64 | 305 | 1.7 | 7.0 | 0.00 | 0.03 | 0.01 | 56 | 1014.6 |
| 20260507200050 | 64 | 336 | 1.7 | 4.3 | 0.00 | 0.03 | 0.01 | 59 | 1014.6 |
| 20260507194548 | 63 | 360 | 1.7 | 7.8 | 0.00 | 0.03 | 0.01 | 58 | 1014.8 |
| 20260507193052 | 63 | 294 | 0.9 | 6.1 | 0.00 | 0.03 | 0.01 | 62 | 1014.7 |
| 20260507191553 | 64 | 13 | 1.7 | 7.0 | 0.00 | 0.03 | 0.01 | 60 | 1014.9 |
| 20260507190048 | 63 | 52 | 1.7 | 4.3 | 0.00 | 0.03 | 0.01 | 63 | 1015.0 |
| 20260507184546 | 63 | 263 | 0.9 | 5.2 | 0.00 | 0.03 | 0.01 | 65 | 1015.0 |
| 20260507183052 | 62 | 0 | 0.9 | 3.5 | 0.00 | 0.03 | 0.01 | 66 | 1015.1 |
| 20260507181553 | 62 | 283 | 1.7 | 7.0 | 0.00 | 0.03 | 0.01 | 65 | 1015.4 |
| 20260507180059 | 62 | 348 | 1.7 | 5.2 | 0.00 | 0.03 | 0.01 | 65 | 1015.5 |
| 20260507174602 | 61 | 351 | 0.9 | 7.8 | 0.00 | 0.03 | 0.01 | 68 | 1015.4 |
| 20260507173049 | 62 | 9 | 0.0 | 3.5 | 0.00 | 0.03 | 0.01 | 65 | 1015.5 |
| 20260507171603 | 62 | 0 | 1.7 | 4.3 | 0.00 | 0.03 | 0.01 | 63 | 1015.4 |
| 20260507170048 | 60 | 0 | 0.9 | 5.2 | 0.00 | 0.03 | 0.01 | 70 | 1015.1 |
| 20260507164549 | 61 | 0 | 0.9 | 7.0 | 0.00 | 0.04 | 0.01 | 70 | 1015.8 |
| 20260507163050 | 61 | 340 | 2.6 | 7.8 | 0.00 | 0.04 | 0.01 | 65 | 1015.7 |
| 20260507161556 | 61 | 73 | 1.7 | 7.8 | 0.00 | 0.04 | 0.01 | 66 | 1015.7 |
| 20260507160053 | 60 | 191 | 0.9 | 4.3 | 0.01 | 0.04 | 0.01 | 70 | 1016.0 |
| 20260507154545 | 58 | 337 | 1.7 | 5.2 | 0.01 | 0.05 | 0.01 | 72 | 1016.0 |
| 20260507153053 | 60 | 42 | 0.9 | 6.1 | 0.01 | 0.05 | 0.01 | 73 | 1015.9 |
| 20260507151549 | 59 | 0 | 0.9 | 3.5 | 0.01 | 0.05 | 0.01 | 75 | 1015.8 |
| 20260507150047 | 57 | 63 | 1.7 | 5.2 | 0.00 | 0.04 | 0.00 | 78 | 1015.8 |
| 20260507144546 | 56 | 87 | 0.0 | 4.3 | 0.00 | 0.06 | 0.00 | 85 | 1015.7 |
| 20260507143050 | 55 | 0 | 0.0 | 1.7 | 0.00 | 0.06 | 0.00 | 85 | 1015.7 |
| 20260507141553 | 54 | 0 | 0.0 | 2.6 | 0.00 | 0.06 | 0.00 | 87 | 1015.5 |
| 20260507140058 | 53 | 0 | 0.0 | 0.0 | 0.00 | 0.06 | 0.00 | 89 | 1015.5 |
| 20260507134545 | 52 | 0 | 0.0 | 3.5 | 0.00 | 0.08 | 0.00 | 92 | 1015.3 |
| 20260507133045 | 52 | 0 | 0.0 | 4.3 | 0.00 | 0.08 | 0.00 | 94 | 1015.3 |
| 20260507131548 | 52 | 0 | 0.0 | 1.7 | 0.00 | 0.08 | 0.00 | 95 | 1015.4 |
| 20260507124602 | 51 | 0 | 0.0 | 3.5 | 0.00 | 0.10 | 0.00 | 96 | 1015.3 |
| 20260507123048 | 51 | 0 | 0.0 | 0.0 | 0.00 | 0.10 | 0.00 | 97 | 1015.3 |
| 20260507121544 | 51 | 0 | 0.0 | 2.6 | 0.00 | 0.10 | 0.00 | 97 | 1015.2 |
| 20260507120046 | 51 | 0 | 0.0 | 0.0 | 0.00 | 0.10 | 0.00 | 97 | 1015.2 |
| 20260507114604 | 51 | 0 | 0.0 | 2.6 | 0.00 | 0.16 | 0.00 | 97 | 1015.0 |
| 20260507113052 | 51 | 0 | 0.0 | 0.0 | 0.00 | 0.16 | 0.00 | 97 | 1014.9 |
| 20260507111545 | 51 | 0 | 0.0 | 1.7 | 0.00 | 0.16 | 0.00 | 97 | 1014.5 |
| 20260507110046 | 51 | 0 | 0.0 | 0.9 | 0.00 | 0.16 | 0.00 | 97 | 1014.1 |
| 20260507104551 | 51 | 19 | 0.0 | 0.9 | 0.00 | 0.23 | 0.00 | 98 | 1013.9 |
| 20260507103044 | 51 | 0 | 0.0 | 0.0 | 0.00 | 0.23 | 0.00 | 98 | 1013.9 |
| 20260507101550 | 51 | 0 | 0.0 | 1.7 | 0.00 | 0.23 | 0.00 | 98 | 1014.0 |
| 20260507100048 | 52 | 0 | 0.0 | 0.0 | 0.00 | 0.23 | 0.00 | 99 | 1013.9 |
| 20260507094546 | 52 | 0 | 0.0 | 0.9 | 0.00 | 0.26 | 0.00 | 99 | 1014.0 |
| 20260507093047 | 52 | 0 | 0.0 | 0.0 | 0.00 | 0.26 | 0.00 | 99 | 1013.9 |
| 20260507091547 | 52 | 0 | 0.0 | 0.9 | 0.00 | 0.26 | 0.00 | 99 | 1014.1 |
| 20260507090047 | 52 | 0 | 0.0 | 0.9 | 0.00 | 0.26 | 0.00 | 99 | 1013.8 |
| 20260507084544 | 52 | 0 | 0.0 | 0.9 | 0.00 | 0.26 | 0.00 | 99 | 1013.9 |
| 20260507083044 | 52 | 0 | 0.0 | 2.6 | 0.00 | 0.26 | 0.00 | 99 | 1014.2 |
| 20260507081544 | 52 | 0 | 0.0 | 0.9 | 0.00 | 0.26 | 0.00 | 99 | 1014.3 |
| 20260507080045 | 52 | 0 | 0.0 | 0.0 | 0.00 | 0.26 | 0.00 | 99 | 1013.9 |
| 20260507074601 | 52 | 0 | 0.0 | 1.7 | 0.00 | 0.26 | 0.00 | 99 | 1013.8 |
| 20260507073048 | 52 | 0 | 0.0 | 0.9 | 0.00 | 0.26 | 0.00 | 99 | 1014.0 |
| 20260507071550 | 52 | 0 | 0.0 | 0.9 | 0.00 | 0.26 | 0.00 | 99 | 1014.2 |
| 20260507070105 | 52 | 0 | 0.0 | 0.0 | 0.00 | 0.26 | 0.00 | 99 | 1014.5 |
| 20260507064543 | 52 | 0 | 0.0 | 0.0 | 0.00 | 0.26 | 0.00 | 99 | 1014.2 |
| 20260507063058 | 53 | 0 | 0.0 | 2.6 | 0.00 | 0.26 | 0.00 | 99 | 1014.0 |
| 20260507061549 | 53 | 0 | 0.0 | 1.7 | 0.00 | 0.26 | 0.00 | 99 | 1014.5 |
| 20260507060049 | 53 | 0 | 0.0 | 0.9 | 0.00 | 0.26 | 0.00 | 99 | 1014.0 |
| 20260507054545 | 53 | 0 | 0.0 | 0.0 | 0.00 | 0.26 | 0.00 | 99 | 1014.6 |
| 20260507053049 | 53 | 0 | 0.0 | 0.0 | 0.00 | 0.26 | 0.00 | 99 | 1014.5 |
| 20260507051545 | 53 | 0 | 0.0 | 0.0 | 0.00 | 0.26 | 0.00 | 99 | 1015.5 |
| 20260507050054 | 53 | 0 | 0.0 | 0.0 | 0.00 | 0.26 | 0.00 | 99 | 1015.1 |
| 20260507044551 | 53 | 0 | 0.0 | 0.0 | 0.00 | 0.26 | 0.26 | 99 | 1015.3 |
| 20260507043047 | 53 | 0 | 0.0 | 0.0 | 0.01 | 0.26 | 0.26 | 99 | 1015.2 |
| 20260507041545 | 53 | 0 | 0.0 | 0.0 | 0.01 | 0.26 | 0.26 | 99 | 1015.1 |
| 20260507040048 | 53 | 0 | 0.0 | 0.0 | 0.01 | 0.26 | 0.26 | 99 | 1014.9 |
| 20260507034546 | 53 | 0 | 0.0 | 0.0 | 0.01 | 0.26 | 0.26 | 99 | 1015.1 |
| 20260507033048 | 53 | 0 | 0.0 | 0.0 | 0.00 | 0.25 | 0.25 | 99 | 1014.9 |
| 20260507031546 | 53 | 0 | 0.0 | 0.0 | 0.00 | 0.25 | 0.25 | 99 | 1014.4 |
| 20260507030116 | 54 | 0 | 0.0 | 0.9 | 0.00 | 0.25 | 0.25 | 99 | 1014.2 |
| 20260507024548 | 54 | 0 | 0.0 | 1.7 | 0.00 | 0.25 | 0.25 | 99 | 1014.5 |
| 20260507023046 | 54 | 0 | 0.0 | 0.0 | 0.00 | 0.25 | 0.25 | 99 | 1014.9 |
| 20260507021544 | 54 | 0 | 0.0 | 1.7 | 0.00 | 0.25 | 0.25 | 99 | 1015.0 |
| 20260507020047 | 54 | 0 | 0.0 | 2.6 | 0.00 | 0.25 | 0.25 | 99 | 1015.7 |
| 20260507014553 | 54 | 0 | 0.0 | 1.7 | 0.00 | 0.25 | 0.25 | 99 | 1014.7 |
| 20260507013051 | 54 | 336 | 0.0 | 0.9 | 0.00 | 0.25 | 0.25 | 99 | 1014.6 |
| 20260507011545 | 54 | 0 | 0.0 | 1.7 | 0.00 | 0.25 | 0.25 | 99 | 1013.5 |
| 20260507010055 | 54 | 0 | 0.0 | 1.7 | 0.00 | 0.25 | 0.25 | 99 | 1014.0 |
| 20260507004548 | 54 | 0 | 0.0 | 0.0 | 0.01 | 0.25 | 0.25 | 98 | 1013.7 |
| 20260507003045 | 54 | 0 | 0.0 | 0.9 | 0.01 | 0.25 | 0.25 | 98 | 1013.7 |
| 20260507001550 | 54 | 0 | 0.0 | 0.9 | 0.01 | 0.25 | 0.25 | 98 | 1013.6 |
| 20260507000047 | 54 | 0 | 0.0 | 0.0 | 0.01 | 0.25 | 0.25 | 98 | 1014.6 |
| 20260506234550 | 54 | 0 | 0.0 | 1.7 | 0.00 | 0.24 | 0.24 | 98 | 1014.9 |
| 20260506233104 | 54 | 0 | 0.0 | 0.0 | 0.00 | 0.24 | 0.24 | 98 | 1015.0 |